Regional Weather Roundup
Issued by NWS

Home | Current Version | Previous Version | Graphics & Text | Print | Product List | Glossary On
Versions: 1 2 3 4 5 6 7 8 9 10 11 12 13 14 15 16 17 18 19 20 21 22 23 24 25 26 27 28 29 30 31 32 33 34 35 36 37 38 39 40 41 42 43 44 45 46 47 48 49 50
000
ASUS43 KFSD 022310
RWRSD

WEATHER ROUNDUP FOR SOUTH DAKOTA
NATIONAL WEATHER SERVICE SIOUX FALLS SD
600 PM CDT MON MAY 02 2016

NOTE: "FAIR" INDICATES FEW OR NO CLOUDS BELOW 12,000 FEET WITH NO
SIGNIFICANT WEATHER AND/OR OBSTRUCTIONS TO VISIBILITY.


SDZ001>005-009-010-012>017-030000-
NORTHWEST AND NORTH CENTRAL SOUTH DAKOTA

CITY           SKY/WX    TMP DP  RH WIND       PRES   REMARKS
BUFFALO          N/A     70  32  24 N25G32    29.91F
FAITH            N/A     54  46  74 S16       29.95S
MOBRIDGE       MOSUNNY   64  42  44 CALM      29.94S
$$

SDZ012>016-024>037-041>051-057-063-072>074-030000-
SOUTHWEST AND SOUTH CENTRAL SOUTH DAKOTA

CITY           SKY/WX    TMP DP  RH WIND       PRES   REMARKS
RAPID CTY ARPT CLOUDY    62  35  36 NW20G29   30.00S
PIERRE         CLOUDY    58  42  55 W9        29.98F
CUSTER         CLOUDY    55  24  30 N8G21     30.06S
ELLSWORTH AFB  CLOUDY    63  35  34 N18       29.99S
PHILIP         LGT RAIN  52  46  80 CALM      30.01F
PINE RIDGE     CLOUDY    62  32  32 NW7       30.01F
WINNER         LGT RAIN  56  46  69 NE12      30.02F
$$

SDZ004>011-016>023-039-040-030000-
NORTHEAST SOUTH DAKOTA

CITY           SKY/WX    TMP DP  RH WIND       PRES   REMARKS
ABERDEEN       MOSUNNY   61  39  44 W6        29.99F
WATERTOWN      SUNNY     65  31  28 S7        29.98F
BROOKINGS      MOSUNNY   61  32  33 VRB3      30.00S
SISSETON         N/A     66  27  23 CALM      29.95F
$$

SDZ017-020-022-023-036>040-048>070-030000-
SOUTHEAST SOUTH DAKOTA

CITY           SKY/WX    TMP DP  RH WIND       PRES   REMARKS
SIOUX FALLS    CLOUDY    62  38  40 W6        30.02S
HURON          CLOUDY    59  43  55 W6        29.99R
CHAMBERLAIN    CLOUDY    59  47  65 E3        30.00F
MITCHELL       SUNNY     64  40  41 SE9       30.00F
YANKTON        MOSUNNY   61  36  39 CALM      30.02F
$$

ABBREVIATIONS USED IN REMARKS
   TC - TEMPERATURE IN CELSIUS
  WCI - WIND CHILL INDEX
   HX - HEAT INDEX
  VSB - VISIBILITY




USA.gov is the U.S. government's official web portal to all federal, state and local government web resources and services.